Location: Unspecified
(0.0000°N, 0.0000°E)
Time: 06:44:16
(UTC+00:00)

Vanguard 1 Rocket - Pass Details

Date: 27 November 2019
Orbit: 650 x 4226 km, 34.3° (Epoch: 11 December)

Event Time Altitude Azimuth Distance (km) Brightness Sun altitude
Rises 16:49:38 0° 226° (SW) 8,178 13.6 13.5°
Reaches altitude 10° 16:56:50 10° 215° (SW) 7,370 13.1 11.8°
Maximum altitude 17:18:26 31° 160° (SSE) 5,468 11.4 6.8°
Drops below altitude 10° 17:35:01 10° 104° (ESE) 5,826 11.0 2.9°
Sets 17:39:36 0° 94° (E) 6,359 11.1 1.9°
